sat.trackr.live / text

‹ back to catalog

STARLINK-2698

NORAD 48458 · 2021-040AG

PAYLOAD ACTIVE UNKNOWN

§ Identity

Operator
Country
US
Launch date
2021-05-09
Launch site
AFETR
Launch vehicle
Mass (kg)
RCS (m²)

Purposes: comms

External: N2YO · Heavens-Above · Gunter

§ Orbital elements

Epoch: 2026-09-19T23:36:13.752000Z

Period
94.01 min
Inclination
53.1611°
Eccentricity
0.0000751
Mean motion
15.31706066 rev/d
Perigee alt
470.2 km
Apogee alt
471.2 km
Semi-major
6,848.9 km
B*
7.0254e-5
RAAN
354.5573°
Arg perigee
87.9122°
Mean anomaly
272.1965°
Rev number
29,716

§ Raw data

STARLINK-26981 48458U 21040AG  26262.98349250  .00001816  00000+0  70254-4 0  99912 48458  53.1611 354.5573 0000751  87.9122 272.1965 15.31706066297164

JSON: /api/v1/satellites/48458 · /tle

For live sub-satellite position, see the globe view (requires WebGL).

§ Visibility from observer

Set your observer location to see the next 7 days of passes ≥ 10°. The values pass through the URL so the page stays shareable.

No JS? Fill the form by hand. The geolocation button needs JavaScript.